Location: Ailly
(50.0793°N, 1.9944°E)
Time: 21:28:06
(UTC+00:00)

Dummy Sat-02 - Pass Details

Date: 15 January 2026
Orbit: 475 x 484 km, 86.3° (Epoch: 17 February)

Event Time Altitude Azimuth Distance (km) Brightness Sun altitude
Rises 05:58:55 0° 184° (S) 2,534 8.3 -16.4°
Reaches altitude 10° 06:01:00 10° 185° (S) 1,658 7.4 -16.1°
Maximum altitude 06:04:37 83° 273° (W) 492 4.4 -15.5°
Drops below altitude 10° 06:08:15 10° 3° (N) 1,668 7.1 -15.0°
Sets 06:10:21 0° 4° (N) 2,551 8.1 -14.6°
